Regional Weather Roundup
Issued by NWS State College, PA

Home | Current Version | Previous Version | Text Only | Print | Product List | Glossary On
Versions: 1 2 3 4 5 6 7 8 9 10 11 12 13 14 15 16 17 18 19 20 21 22 23 24 25 26 27 28 29 30 31 32 33 34 35 36 37 38 39 40 41 42 43 44 45 46 47 48 49 50
000
ASUS41 KCTP 300110
RWRCTP

REGIONAL WEATHER ROUNDUP
NATIONAL WEATHER SERVICE STATE COLLEGE PA
900 PM EDT MON SEP 29 2014

Note: "fair" indicates few or no clouds below 12,000 feet with no
significant weather and/or obstructions to visibility.

* = STATION THAT DOES NOT REPORT PRECIPITATION /E.G. RAIN...SNOW...ETC/
    THUNDER OR FOG.

PAZ002>004-007>009-013>016-020>023-029>032-300200-
WESTERN PENNSYLVANIA

CITY           SKY/WX    TMP DP  RH WIND       PRES   REMARKS
ERIE           CLEAR     61  54  77 S3        29.92S
MEADVILLE      CLEAR     59  54  83 CALM      29.94S
FRANKLIN*      CLEAR     61  54  77 CALM      29.97R
NEW CASTLE       N/A     64  57  78 CALM      29.95S
BEAVER COUNTY  CLEAR     66  55  68 N6        29.94R
BUTLER*        CLEAR     61  52  72 CALM      29.95F
PITTSBURGH INT PTCLDY    71  55  56 NE3       29.93R
PITTSBURGH     CLEAR     72  52  49 NW3       29.93R
INDIANA*       CLOUDY    64  59  82 CALM      29.98S
LATROBE        PTCLDY    66  61  82 CALM      29.94R
WASHINGTON CO* PTCLDY    63  57  82 CALM      29.95S
$$

PAZ004>006-010>012-017>019-024>028-033>037-041-042-045-046-049>053-300200-
CENTRAL PENNSYLVANIA

CITY           SKY/WX    TMP DP  RH WIND       PRES   REMARKS
BRADFORD       CLEAR     56  52  86 CALM      29.96S
DUBOIS         CLEAR     59  53  80 CALM      29.94F
CLEARFIELD     CLEAR     59  56  89 N5        29.95R
JOHNSTOWN      PTCLDY    65  51  60 CALM      29.97S
ALTOONA        CLOUDY    64  57  78 SW5       29.96R
STATE COLLEGE  PTCLDY    64  57  77 CALM      29.94R
WILLIAMSPORT   PTCLDY    66  60  81 CALM      29.90R
SELINSGROVE    PTCLDY    61  59  93 CALM      29.92S
FT INDIANTOWN  CLOUDY    65  64  98 N1        29.93R
CAPITAL CITY   CLOUDY    70  59  68 CALM      29.93R
HARRISBURG     CLOUDY    70  61  73 SW12      29.92R
YORK           CLOUDY    68  63  84 SW3       29.94R
$$

PAZ038>040-043-044-047-048-054-055-060>062-067>071-300200-
EASTERN PENNSYLVANIA

CITY           SKY/WX    TMP DP  RH WIND       PRES   REMARKS
SCRANTON       CLOUDY    64  55  72 CALM      29.93R
MOUNT POCONO   CLOUDY    59  56  89 CALM      29.97R
ALLENTOWN      CLOUDY    69  61  75 S6        29.94R
QUAKERTOWN*    CLOUDY    66  63  88 SW3       29.96R
READING        CLOUDY    70  62  76 S5        29.93R
LANCASTER      CLOUDY    67  64  90 CALM      29.94R
COATESVILLE    CLOUDY    64  63  94 CALM      29.96S FOG
POTTSTOWN      CLOUDY    66  62  87 CALM      29.96S
BLUE BELL      CLOUDY    64  63  94 CALM      29.95R
DOYLESTOWN     CLOUDY    65  61  87 SW5       29.95R
WILLOW GROVE   NOT AVBL
NORTH PHILA    CLOUDY    69  61  75 SW3       29.96R
PHILADELPHIA   CLOUDY    68  64  87 S6        29.96R
$$


USA.gov is the U.S. government's official web portal to all federal, state and local government web resources and services.